This demonstration page uses our WeatherBlox Daily Observations layout. Learn more.

Left ArrowRight Arrow

Hourly Observations for November 28, 2020

Temp ( °F °C ) Dew Point ( °F °C ) Humidity (%) Winds ( mph kmh ) Pressure ( in mb ) Visibility ( mi km ) Precip ( " mm )
12:54 am 00:54 Clear 31 -0.6 23 -5 72 72 SSE 5 7 30.24 1024 10 16.0934 0 0
1:54 am 01:54 Clear 31 -0.6 23 -5 72 72 SSE 5 7 30.23 1024 10 16.0934 0 0
2:54 am 02:54 Clear 32 0 24 -4.4 73 73 S 5 7 30.22 1024 10 16.0934 0 0
3:54 am 03:54 Clear 32 0 24 -4.4 73 73 S 3 6 30.21 1023 10 16.0934 0 0
4:54 am 04:54 Clear 30 -1.1 23 -5 75 75 S 3 6 30.19 1023 10 16.0934 0 0
5:54 am 05:54 Clear 33 0.6 25 -3.9 72 72 SW 8 13 30.19 1022 10 16.0934 0 0
6:54 am 06:54 Clear 32 0 24 -4.4 73 73 SSW 5 7 30.19 1022 10 16.0934 0 0
7:54 am 07:54 Sunny 33 0.6 25 -3.9 72 72 SW 7 11 30.19 1022 10 16.0934 0 0
8:54 am 08:54 Sunny 38 3.3 27 -2.8 65 65 SW 8 13 30.18 1022 10 16.0934 0 0
9:54 am 09:54 Sunny 45 7.2 28 -2.2 52 52 SW 7 11 30.16 1021 10 16.0934 0 0
10:54 am 10:54 Sunny 50 10 31 -0.6 48 48 SW 12 19 30.14 1021 10 16.0934 0 0
11:54 am 11:54 Sunny 55 12.8 30 -1.1 38 38 WSW 14 22 30.11 1020 10 16.0934 0 0
12:54 pm 12:54 Sunny 59 15 32 0 36 36 SSW 18 30 30.07 1018 10 16.0934 0 0
1:54 pm 13:54 Sunny 59 15 31 -0.6 35 35 SW 22 35 30.06 1018 10 16.0934 0 0
2:54 pm 14:54 Sunny 59 15 32 0 36 36 SW 20 31 30.04 1017 10 16.0934 0 0
3:54 pm 15:54 Sunny 57 13.9 33 0.6 41 41 SSW 15 24 30.05 1018 10 16.0934 0 0
4:54 pm 16:54 Sunny 52 11.1 33 0.6 49 49 SSW 12 19 30.06 1018 10 16.0934 0 0
5:54 pm 17:54 Clear 46 7.8 31 -0.6 56 56 Calm 30.06 1018 10 16.0934 0 0
6:54 pm 18:54 Clear 43 6.1 31 -0.6 63 63 S 7 11 30.04 1017 10 16.0934 0 0
7:54 pm 19:54 Clear 41 5 30 -1.1 65 65 S 6 9 30.03 1017 10 16.0934 0 0
8:54 pm 20:54 Clear 40 4.4 29 -1.7 65 65 SE 3 6 30.02 1017 10 16.0934 0 0
9:54 pm 21:54 Clear 39 3.9 28 -2.2 65 65 SSW 7 11 30.02 1017 10 16.0934 0 0
10:54 pm 22:54 Clear 37 2.8 28 -2.2 70 70 S 3 6 30.01 1016 10 16.0934 0 0
11:54 pm 23:54 Clear 38 3.3 28 -2.2 68 68 SSW 5 7 30.02 1017 10 16.0934 0 0

Powered by AerisWeather